maroccommerce.com alexa rank chart, maroccommerce.com alexa rank daily changes

maroccommerce.com alexa rank chart, maroccommerce.com alexa rank daily changes

maroccommerce.com
Actual rank:
111 264

RANK HISTORY

Date Rank Diff
2017/02/22 111 264 +463
2017/02/21 110 801 +1 461
2017/02/20 109 340 +641
2017/02/19 108 699 +1 409
2017/02/18 107 290 -145
2017/02/17 107 435 -601
2017/02/16 108 036 -1 804
2017/02/15 109 840 -249
2017/02/14 110 089 +109
2017/02/13 109 980 +590
2017/02/12 109 390 +691
2017/02/11 108 699 -219
2017/02/10 108 918 -2 241
2017/02/09 111 159 -66
2017/02/08 111 225 +1 449
2017/02/07 109 776 +196
2017/02/06 109 580 +573
2017/02/05 109 007 -175
2017/02/04 109 182 +351
2017/02/03 108 831 -2 094
2017/02/02 110 925 -1 605
2017/02/01 112 530 -1 038
2017/01/31 113 568 -164
2017/01/30 113 732 -280
2017/01/29 114 012 -914
2017/01/28 114 926 -406
2017/01/27 115 332 -1 431
2017/01/26 116 763 -321
2017/01/25 117 084 -1 303
2017/01/24 118 387 +1 935
2017/01/23 116 452 +1 142
2017/01/22 115 310 +350
2017/01/21 114 960 -851
2017/01/20 115 811 -782
2017/01/19 116 593 -303
2017/01/18 116 896 -928
2017/01/17 117 824 +1 871
2017/01/16 115 953 +476
2017/01/15 115 477 -634
2017/01/14 116 111 -713
2017/01/13 116 824 -1 367
2017/01/12 118 191 +198
2017/01/11 117 993 -222
2017/01/10 118 215 +1 049
2017/01/09 117 166 +634
2017/01/08 116 532 -1 078
2017/01/07 117 610 +1 555
2017/01/06 116 055 -815
2017/01/05 116 870 -1 557
2017/01/04 118 427 -853
2017/01/03 119 280 +1 344
2017/01/02 117 936 +1 847
2017/01/01 116 089 -299
2016/12/31 116 388 +711
2016/12/30 115 677 +1 090
2016/12/29 114 587 -604
2016/12/28 115 191 -1 364
2016/12/27 116 555 +3 073
2016/12/26 113 482 +994
2016/12/25 112 488 +1 846
2016/12/24 110 642

WIDGET FOR YOUR SITE

DOMAINS WITH THE NEAREST RANK

Domain Rank
mapcustomizer.com 111 259
preferred-networks.jp 111 260
promods.net 111 261
blitzortung.org 111 262
rigol.com 111 263
maroccommerce.com 111 264
wpadvancedads.com 111 265
wordpresstemporal.com 111 266
wordunscrambler.com 111 267
windowspro.de 111 268
trovesaurus.com 111 269

DOMAINS WITH THE NEAREST RANK BY TLD .com

Domain Rank
crlaurence.com 111 253
kanjiankang.com 111 254
china-mama.com 111 257
mapcustomizer.com 111 259
rigol.com 111 263
maroccommerce.com 111 264
wpadvancedads.com 111 265
wordpresstemporal.com 111 266
wordunscrambler.com 111 267
trovesaurus.com 111 269
xxx3tube.com 111 270